TimeMST,TemperatureF,Dew PointF,Humidity,Sea Level PressureIn,VisibilityMPH,Wind Direction,Wind SpeedMPH,Gust SpeedMPH,PrecipitationIn,Events,Conditions,WindDirDegrees,DateUTC
12:53 AM,18.0,8.1,65,30.12,10.0,Calm,Calm,-,N/A,,Overcast,0,2013-01-15 07:53:00
1:53 AM,17.6,8.6,68,29.95,10.0,South,3.5,-,N/A,,Overcast,180,2013-01-15 08:53:00
2:53 AM,19.9,12.0,71,30.12,10.0,NNE,4.6,-,N/A,,Overcast,30,2013-01-15 09:53:00
3:53 AM,19.0,12.9,77,30.12,10.0,Calm,Calm,-,N/A,,Overcast,0,2013-01-15 10:53:00
4:09 AM,19.4,12.2,74,29.95,4.0,Calm,Calm,-,0.00,Snow,Light Snow,0,2013-01-15 11:09:00
4:25 AM,17.6,12.2,79,29.95,2.0,Calm,Calm,-,0.00,Snow,Light Snow,0,2013-01-15 11:25:00
4:53 AM,19.4,15.8,86,29.94,2.0,SSW,3.5,-,N/A,Snow,Light Snow,210,2013-01-15 11:53:00
5:11 AM,19.4,15.8,86,29.94,1.8,South,4.6,-,0.00,Snow,Light Snow,190,2013-01-15 12:11:00
5:27 AM,19.4,17.6,93,29.95,1.8,South,5.8,-,0.01,Snow,Light Snow,170,2013-01-15 12:27:00
5:51 AM,19.4,17.6,93,29.96,2.5,South,6.9,-,0.02,Snow,Light Snow,180,2013-01-15 12:51:00
5:53 AM,19.9,18.0,92,30.14,3.0,South,5.8,-,0.02,Snow,Light Snow,180,2013-01-15 12:53:00
6:36 AM,21.2,19.4,93,29.96,8.0,SSW,5.8,-,0.00,Snow,Light Snow,200,2013-01-15 13:36:00
6:53 AM,21.9,19.0,89,30.14,8.0,Calm,Calm,-,0.00,Snow,Light Snow,0,2013-01-15 13:53:00
7:53 AM,23.0,19.9,88,30.15,5.0,Calm,Calm,-,0.00,Snow,Light Snow,0,2013-01-15 14:53:00
8:53 AM,25.0,21.9,88,30.16,10.0,South,5.8,-,0.00,Snow,Light Snow,170,2013-01-15 15:53:00
9:53 AM,28.0,25.0,88,30.13,10.0,SSW,8.1,-,0.00,,Overcast,200,2013-01-15 16:53:00
10:53 AM,32.0,27.0,82,30.12,10.0,Calm,Calm,-,N/A,,Overcast,0,2013-01-15 17:53:00
11:53 AM,35.1,28.9,78,30.09,10.0,Calm,Calm,-,N/A,,Overcast,0,2013-01-15 18:53:00
12:53 PM,36.0,28.0,73,30.08,10.0,West,4.6,-,N/A,,Overcast,270,2013-01-15 19:53:00
1:53 PM,34.0,25.0,70,30.09,10.0,NW,12.7,-,N/A,,Overcast,320,2013-01-15 20:53:00
2:53 PM,35.1,26.1,70,30.10,10.0,NW,8.1,-,N/A,,Overcast,320,2013-01-15 21:53:00
3:53 PM,35.1,26.1,70,30.12,10.0,WSW,6.9,-,N/A,,Overcast,240,2013-01-15 22:53:00
4:53 PM,35.1,25.0,67,30.14,10.0,WNW,9.2,-,N/A,,Overcast,290,2013-01-15 23:53:00
5:53 PM,35.1,27.0,72,30.13,10.0,Calm,Calm,-,N/A,,Overcast,0,2013-01-16 00:53:00
6:53 PM,36.0,28.0,73,30.15,10.0,SSE,5.8,-,N/A,,Overcast,150,2013-01-16 01:53:00
7:53 PM,34.0,25.0,70,30.14,10.0,Calm,Calm,-,N/A,,Overcast,0,2013-01-16 02:53:00
8:53 PM,32.0,23.0,69,30.14,10.0,WNW,8.1,-,N/A,,Overcast,290,2013-01-16 03:53:00
9:53 PM,32.0,23.0,69,30.13,10.0,West,8.1,-,N/A,,Scattered Clouds,280,2013-01-16 04:53:00
10:53 PM,34.0,24.1,67,30.11,10.0,West,12.7,-,N/A,,Overcast,280,2013-01-16 05:53:00
11:53 PM,33.1,21.9,64,30.11,10.0,West,11.5,-,N/A,,Mostly Cloudy,280,2013-01-16 06:53:00